Plymouth, NH

6:34 AM EST on November 19, 2017 (GMT -0500)
Plymouth

Weather History for K1P1 - April, 2014

Change the Weather History Date:

Wednesday, April 23, 2014

  Actual Average (KLCI) Record (KLCI)
Temperature  
Mean Temperature 46 °F -  
Max Temperature 50 °F 59 °F 82 °F (2007)
Min Temperature 42 °F 37 °F 19 °F (1989)
Degree Days  
Heating Degree Days 19    
Moisture  
Dew Point 39 °F    
Average Humidity 79    
Maximum Humidity 99    
Minimum Humidity 60    
Precipitation  
Precipitation 0.00 in - - ()
Sea Level Pressure  
Sea Level Pressure 29.51 in    
Wind  
Wind Speed 6 mph (WNW)    
Max Wind Speed 20 mph    
Max Gust Speed 38 mph    
Visibility 8 miles    
Events Fog    
Averages and records for this station are not official NWS values.
T = Trace of Precipitation, MM = Missing Value Source: NWS Daily Summary

Daily Weather History Graph

Daily Weather History Graph

Search for Another Location

Airport or City:

Trip Planner

Search our weather history database for the weather conditions in past years. The results will help you decide how hot, cold, wet, or windy it might be!

Date:

Astronomy

Apr. 23, 2014 Rise Set
Actual Time 5:51 AM EDT 7:40 PM EDT
Civil Twilight 5:20 AM EDT 8:11 PM EDT
Nautical Twilight 4:43 AM EDT 8:48 PM EDT
Astronomical Twilight 4:02 AM EDT 9:29 PM EDT
Moon 2:32 AM EDT (4/23) 1:33 PM EDT (4/23)
Length of Visible Light 14h 50m
Length of Day
13h 49m
Waning Crescent, 35% of the Moon is Illuminated
Apr 23
Waning Crescent
Apr 29
New
May 6
First Quarter
May 14
Full
May 21
Last Quarter

Hourly Weather History & Observations

Time (EDT) Temp. Windchill Dew Point Humidity Pressure Visibility Wind Dir Wind Speed Gust Speed Precip Events Conditions
12:15 AM 50.0 °F - 48.9 °F 96% 29.43 in 0.2 mi Calm Calm - N/A Fog Fog
12:35 AM 49.3 °F - 48.4 °F 97% 29.44 in 0.2 mi Calm Calm - N/A Fog Fog
12:55 AM 48.7 °F - 47.8 °F 97% 29.44 in 0.2 mi Calm Calm - N/A Fog Fog
1:15 AM 47.7 °F - 47.1 °F 98% 29.43 in 0.2 mi Calm Calm - N/A Fog Fog
1:35 AM 47.5 °F - 46.8 °F 97% 29.43 in 0.8 mi Calm Calm - N/A   Mist
1:55 AM 47.1 °F - 46.4 °F 97% 29.43 in 0.8 mi Calm Calm - N/A   Mist
2:15 AM 46.9 °F - 46.4 °F 98% 29.43 in 0.5 mi Calm Calm - N/A Fog Fog
2:35 AM 48.0 °F - 47.3 °F 97% 29.43 in 4.0 mi Calm Calm - N/A   Mist
2:55 AM 50.0 °F - 49.1 °F 97% 29.43 in 10.0 mi NW 3.5 mph - N/A   Unknown
3:15 AM 48.0 °F - 47.3 °F 97% 29.43 in 5.0 mi Calm Calm - N/A   Mist
3:35 AM 46.4 °F - 45.7 °F 97% 29.42 in 0.2 mi Calm Calm - N/A Fog Fog
3:55 AM 45.5 °F - 45.0 °F 98% 29.42 in 0.5 mi Calm Calm - N/A Fog Fog
4:15 AM 43.7 °F - 43.3 °F 99% 29.43 in 0.5 mi Calm Calm - N/A Fog Fog
4:35 AM 43.3 °F - 43.0 °F 99% 29.43 in 0.5 mi Calm Calm - N/A Fog Fog
4:55 AM 43.2 °F - 42.8 °F 99% 29.43 in 1.0 mi Calm Calm - N/A   Mist
5:15 AM 43.0 °F 40.3 °F 42.6 °F 99% 29.42 in 2.0 mi West 4.6 mph - N/A   Mist
5:35 AM 44.6 °F 41.4 °F 44.2 °F 99% 29.42 in 10.0 mi West 5.8 mph - N/A   Unknown
5:55 AM 44.4 °F - 43.9 °F 98% 29.42 in 7.0 mi Calm Calm - N/A   Unknown
6:15 AM 44.8 °F 41.6 °F 44.2 °F 98% 29.44 in 7.0 mi West 5.8 mph - N/A   Unknown
6:35 AM 47.8 °F - 47.3 °F 98% 29.44 in 10.0 mi WNW 4.6 mph - N/A   Unknown
6:55 AM 48.4 °F - 47.7 °F 97% 29.44 in 10.0 mi West 6.9 mph - N/A   Unknown
7:15 AM 49.3 °F - 48.2 °F 96% 29.45 in 10.0 mi West 10.4 mph 16.1 mph N/A   Unknown
7:35 AM 50.0 °F - 44.6 °F 82% 29.46 in 10.0 mi West 8.1 mph 16.1 mph N/A   Unknown
7:55 AM 49.5 °F - 44.1 °F 82% 29.47 in 10.0 mi NW 5.8 mph - N/A   Unknown
8:15 AM 49.3 °F - 43.2 °F 79% 29.48 in 10.0 mi WNW 9.2 mph 16.1 mph N/A   Unknown
8:35 AM 49.1 °F - 41.7 °F 76% 29.48 in 10.0 mi West 8.1 mph - N/A   Unknown
8:55 AM 49.1 °F - 41.5 °F 75% 29.49 in 10.0 mi West 9.2 mph - N/A   Unknown
9:15 AM 48.6 °F - 40.8 °F 75% 29.49 in 10.0 mi West 8.1 mph - N/A   Unknown
9:35 AM 49.1 °F - 40.8 °F 73% 29.49 in 10.0 mi West 9.2 mph 16.1 mph N/A   Unknown
9:55 AM 49.1 °F - 40.8 °F 73% 29.49 in 10.0 mi WNW 6.9 mph - N/A   Unknown
10:15 AM 48.6 °F - 39.9 °F 72% 29.49 in 10.0 mi NW 12.7 mph 19.6 mph N/A   Unknown
10:35 AM 47.5 °F - 38.7 °F 71% 29.49 in 10.0 mi NW 9.2 mph 17.3 mph N/A   Unknown
10:55 AM 46.9 °F - 37.6 °F 70% 29.50 in 10.0 mi NW 17.3 mph 26.5 mph N/A   Unknown
11:15 AM 46.4 °F 40.4 °F 37.9 °F 72% 29.51 in 10.0 mi NW 13.8 mph 19.6 mph N/A   Unknown
11:35 AM 45.5 °F 39.6 °F 37.9 °F 75% 29.51 in 10.0 mi WNW 12.7 mph 20.7 mph N/A   Unknown
11:55 AM 47.3 °F - 38.5 °F 71% 29.50 in 10.0 mi NW 11.5 mph 16.1 mph N/A   Unknown
12:15 PM 47.3 °F - 36.5 °F 66% 29.51 in 10.0 mi NW 12.7 mph 21.9 mph N/A   Unknown
12:35 PM 46.8 °F - 37.0 °F 69% 29.51 in 10.0 mi WNW 11.5 mph 21.9 mph N/A   Unknown
12:55 PM 46.0 °F 40.2 °F 36.9 °F 70% 29.51 in 10.0 mi NW 12.7 mph 19.6 mph N/A   Unknown
1:15 PM 46.2 °F 38.7 °F 36.7 °F 69% 29.51 in 10.0 mi WNW 19.6 mph 25.3 mph N/A   Unknown
1:35 PM 46.6 °F - 36.7 °F 68% 29.52 in 10.0 mi WNW 13.8 mph 19.6 mph N/A   Unknown
1:55 PM 45.5 °F 39.9 °F 36.0 °F 69% 29.53 in 10.0 mi WNW 11.5 mph 17.3 mph N/A   Unknown
2:15 PM 45.1 °F 38.4 °F 35.6 °F 69% 29.53 in 10.0 mi WNW 15.0 mph 23.0 mph N/A   Unknown
2:35 PM 44.8 °F 38.3 °F 35.4 °F 70% 29.54 in 10.0 mi WNW 13.8 mph 26.5 mph N/A   Unknown
2:55 PM 44.6 °F 37.4 °F 34.7 °F 68% 29.55 in 10.0 mi NW 16.1 mph 24.2 mph N/A   Unknown
3:15 PM 44.6 °F 36.6 °F 34.9 °F 69% 29.54 in 10.0 mi NW 19.6 mph 24.2 mph N/A   Unknown
3:35 PM 44.8 °F 39.4 °F 35.2 °F 69% 29.54 in 10.0 mi NW 10.4 mph 17.3 mph N/A   Unknown
4:15 PM 45.3 °F 38.4 °F 35.1 °F 67% 29.54 in 10.0 mi WNW 16.1 mph 25.3 mph N/A   Unknown
4:35 PM 45.9 °F 39.4 °F 34.7 °F 65% 29.53 in 10.0 mi NNW 15.0 mph 26.5 mph N/A   Unknown
4:55 PM 46.6 °F - 34.3 °F 62% 29.53 in 10.0 mi NW 11.5 mph 26.5 mph N/A   Unknown
5:15 PM 46.6 °F - 34.7 °F 63% 29.54 in 10.0 mi NW 12.7 mph 26.5 mph N/A   Unknown
5:35 PM 46.6 °F - 34.3 °F 62% 29.54 in 10.0 mi NW 15.0 mph 25.3 mph N/A   Unknown
5:55 PM 46.9 °F - 34.3 °F 62% 29.54 in 10.0 mi WNW 12.7 mph 24.2 mph N/A   Unknown
6:15 PM 47.3 °F - 34.0 °F 60% 29.55 in 10.0 mi WNW 15.0 mph 25.3 mph N/A   Unknown
6:35 PM 47.1 °F - 34.3 °F 61% 29.55 in 10.0 mi WNW 16.1 mph 25.3 mph N/A   Unknown
6:55 PM 44.8 °F 38.7 °F 36.5 °F 73% 29.56 in 10.0 mi West 12.7 mph 23.0 mph N/A   Unknown
7:15 PM 43.7 °F 36.3 °F 37.0 °F 77% 29.57 in 10.0 mi WNW 16.1 mph 23.0 mph N/A   Unknown
7:35 PM 43.3 °F 36.1 °F 37.0 °F 78% 29.57 in 10.0 mi WNW 15.0 mph - N/A   Unknown
7:55 PM 43.7 °F 36.6 °F 36.3 °F 75% 29.58 in 10.0 mi WNW 15.0 mph 27.6 mph N/A   Unknown
8:15 PM 43.9 °F 35.9 °F 35.8 °F 73% 29.58 in 10.0 mi WNW 18.4 mph 38.0 mph N/A   Unknown
8:35 PM 43.7 °F 36.0 °F 35.6 °F 73% 29.59 in 10.0 mi NW 17.3 mph 20.7 mph N/A   Unknown
8:55 PM 43.7 °F 36.0 °F 34.7 °F 71% 29.59 in 10.0 mi WNW 17.3 mph 27.6 mph N/A   Unknown
9:15 PM 43.0 °F 36.4 °F 34.9 °F 73% 29.60 in 10.0 mi NW 12.7 mph 23.0 mph N/A   Unknown
9:35 PM 43.0 °F 36.0 °F 34.2 °F 71% 29.61 in 10.0 mi WNW 13.8 mph 19.6 mph N/A   Unknown
9:55 PM 43.2 °F 36.6 °F 33.4 °F 69% 29.61 in 10.0 mi NW 12.7 mph 25.3 mph N/A   Unknown
10:15 PM 43.0 °F 35.1 °F 33.1 °F 68% 29.61 in 10.0 mi WNW 17.3 mph 25.3 mph N/A   Unknown
10:35 PM 42.8 °F 36.2 °F 32.9 °F 68% 29.61 in 10.0 mi WNW 12.7 mph 20.7 mph N/A   Unknown
10:55 PM 43.0 °F 36.8 °F 32.2 °F 66% 29.62 in 10.0 mi WNW 11.5 mph 31.1 mph N/A   Unknown
11:15 PM 42.8 °F 36.2 °F 32.0 °F 66% 29.62 in 10.0 mi WNW 12.7 mph 24.2 mph N/A   Unknown
11:35 PM 42.8 °F 34.5 °F 31.8 °F 65% 29.62 in 10.0 mi WNW 18.4 mph 23.0 mph N/A   Unknown
11:55 PM 42.6 °F 35.9 °F 31.5 °F 65% 29.63 in 10.0 mi WNW 12.7 mph 26.5 mph N/A   Unknown